Year,Month,Day,Hour,Minute,Value (Times are PST for temperature in C)
2016,08,17,00,00,19.90
2016,08,17,00,01,19.90
2016,08,17,00,02,19.90
2016,08,17,00,03,19.90
2016,08,17,00,04,19.80
2016,08,17,00,05,19.90
2016,08,17,00,06,19.90
2016,08,17,00,07,19.90
2016,08,17,00,08,19.90
2016,08,17,00,09,19.90
2016,08,17,00,10,19.90
2016,08,17,00,11,19.90
2016,08,17,00,12,19.80
2016,08,17,00,13,19.80
2016,08,17,00,14,19.80
2016,08,17,00,15,19.80
2016,08,17,00,16,19.80
2016,08,17,00,17,19.80
2016,08,17,00,18,19.80
2016,08,17,00,19,19.80
2016,08,17,00,20,19.70
2016,08,17,00,21,19.70
2016,08,17,00,22,19.70
2016,08,17,00,23,19.70
2016,08,17,00,24,19.60
2016,08,17,00,25,19.60
2016,08,17,00,26,19.60
2016,08,17,00,27,19.60
2016,08,17,00,28,19.60
2016,08,17,00,29,19.60
2016,08,17,00,30,19.60
2016,08,17,00,31,19.50
2016,08,17,00,32,19.50
2016,08,17,00,33,19.50
2016,08,17,00,34,19.50
2016,08,17,00,35,19.50
2016,08,17,00,36,19.50
2016,08,17,00,37,19.50
2016,08,17,00,38,19.50
2016,08,17,00,39,19.50
2016,08,17,00,40,19.50
2016,08,17,00,41,19.50
2016,08,17,00,42,19.50
2016,08,17,00,43,19.50
2016,08,17,00,44,19.50
2016,08,17,00,45,19.50
2016,08,17,00,46,19.40
2016,08,17,00,47,19.40
2016,08,17,00,48,19.40
2016,08,17,00,49,19.40
2016,08,17,00,50,19.40
2016,08,17,00,51,19.40
2016,08,17,00,52,19.40
2016,08,17,00,53,19.40
2016,08,17,00,54,19.40
2016,08,17,00,55,19.30
2016,08,17,00,56,19.30
2016,08,17,00,57,19.30
2016,08,17,00,58,19.30
2016,08,17,00,59,19.20
2016,08,17,01,00,19.20
2016,08,17,01,01,19.20
2016,08,17,01,02,19.20
2016,08,17,01,03,19.20
2016,08,17,01,04,19.10
2016,08,17,01,05,19.10
2016,08,17,01,06,19.10
2016,08,17,01,07,19.10
2016,08,17,01,08,19.10
2016,08,17,01,09,19.00
2016,08,17,01,10,19.00
2016,08,17,01,11,19.00
2016,08,17,01,12,19.00
2016,08,17,01,13,18.90
2016,08,17,01,14,18.90
2016,08,17,01,15,18.90
2016,08,17,01,16,18.90
2016,08,17,01,17,18.90
2016,08,17,01,18,18.80
2016,08,17,01,19,18.80
2016,08,17,01,20,18.80
2016,08,17,01,21,18.80
2016,08,17,01,22,18.70
2016,08,17,01,23,18.70
2016,08,17,01,24,18.70
2016,08,17,01,25,18.70
2016,08,17,01,26,18.70
2016,08,17,01,27,18.80
2016,08,17,01,28,18.80
2016,08,17,01,29,18.80
2016,08,17,01,30,18.80
2016,08,17,01,31,18.80
2016,08,17,01,32,18.80
2016,08,17,01,33,18.80
2016,08,17,01,34,18.80
2016,08,17,01,35,18.80
2016,08,17,01,36,18.80
2016,08,17,01,37,18.80
2016,08,17,01,38,18.80
2016,08,17,01,39,18.80
2016,08,17,01,40,18.80
2016,08,17,01,41,18.80
2016,08,17,01,42,18.80
2016,08,17,01,43,18.80
2016,08,17,01,44,18.80
2016,08,17,01,45,18.80
2016,08,17,01,46,18.80
2016,08,17,01,47,18.80
2016,08,17,01,48,18.80
2016,08,17,01,49,18.80
2016,08,17,01,50,18.70
2016,08,17,01,51,18.70
2016,08,17,01,52,18.70
2016,08,17,01,53,18.70
2016,08,17,01,54,18.70
2016,08,17,01,55,18.70
2016,08,17,01,56,18.70
2016,08,17,01,57,18.70
2016,08,17,01,58,18.70
2016,08,17,01,59,18.70
2016,08,17,02,00,18.70
2016,08,17,02,01,18.70
2016,08,17,02,02,18.70
2016,08,17,02,03,18.60
2016,08,17,02,04,18.60
2016,08,17,02,05,18.60
2016,08,17,02,06,18.60
2016,08,17,02,07,18.60
2016,08,17,02,08,18.60
2016,08,17,02,09,18.60
2016,08,17,02,10,18.60
2016,08,17,02,11,18.60
2016,08,17,02,12,18.60
2016,08,17,02,13,18.60
2016,08,17,02,14,18.60
2016,08,17,02,15,18.60
2016,08,17,02,16,18.60
2016,08,17,02,17,18.60
2016,08,17,02,18,18.60
2016,08,17,02,19,18.60
2016,08,17,02,20,18.60
2016,08,17,02,21,18.60
2016,08,17,02,22,18.60
2016,08,17,02,23,18.60
2016,08,17,02,24,18.60
2016,08,17,02,25,18.60
2016,08,17,02,26,18.60
2016,08,17,02,27,18.60
2016,08,17,02,28,18.60
2016,08,17,02,29,18.60
2016,08,17,02,30,18.60
2016,08,17,02,31,18.60
2016,08,17,02,32,18.60
2016,08,17,02,33,18.60
2016,08,17,02,34,18.50
2016,08,17,02,35,18.50
2016,08,17,02,36,18.50
2016,08,17,02,37,18.50
2016,08,17,02,38,18.50
2016,08,17,02,39,18.50
2016,08,17,02,40,18.50
2016,08,17,02,41,18.50
2016,08,17,02,42,18.50
2016,08,17,02,43,18.40
2016,08,17,02,44,18.40
2016,08,17,02,45,18.40
2016,08,17,02,46,18.30
2016,08,17,02,47,18.30
2016,08,17,02,48,18.30
2016,08,17,02,49,18.30
2016,08,17,02,50,18.30
2016,08,17,02,51,18.30
2016,08,17,02,52,18.20
2016,08,17,02,53,18.20
2016,08,17,02,54,18.20
2016,08,17,02,55,18.20
2016,08,17,02,56,18.20
2016,08,17,02,57,18.10
2016,08,17,02,58,18.10
2016,08,17,02,59,18.10
2016,08,17,03,00,18.20
2016,08,17,03,01,18.20
2016,08,17,03,02,18.20
2016,08,17,03,03,18.20
2016,08,17,03,04,18.20
2016,08,17,03,05,18.20
2016,08,17,03,06,18.20
2016,08,17,03,07,18.20
2016,08,17,03,08,18.20
2016,08,17,03,09,18.10
2016,08,17,03,10,18.10
2016,08,17,03,11,18.10
2016,08,17,03,12,18.10
2016,08,17,03,13,18.10
2016,08,17,03,14,18.10
2016,08,17,03,15,18.00
2016,08,17,03,16,18.00
2016,08,17,03,17,18.00
2016,08,17,03,18,17.90
2016,08,17,03,19,17.80
2016,08,17,03,20,17.80
2016,08,17,03,21,17.70
2016,08,17,03,22,17.60
2016,08,17,03,23,17.50
2016,08,17,03,24,17.50
2016,08,17,03,25,17.40
2016,08,17,03,26,17.30
2016,08,17,03,27,17.20
2016,08,17,03,28,17.20
2016,08,17,03,29,17.20
2016,08,17,03,30,17.10
2016,08,17,03,31,17.00
2016,08,17,03,32,17.00
2016,08,17,03,33,16.90
2016,08,17,03,34,16.90
2016,08,17,03,35,16.80
2016,08,17,03,36,16.80
2016,08,17,03,37,16.80
2016,08,17,03,38,16.70
2016,08,17,03,39,16.70
2016,08,17,03,40,16.60
2016,08,17,03,41,16.60
2016,08,17,03,42,16.50
2016,08,17,03,43,16.50
2016,08,17,03,44,16.50
2016,08,17,03,45,16.40
2016,08,17,03,46,16.40
2016,08,17,03,47,16.40
2016,08,17,03,48,16.40
2016,08,17,03,49,16.40
2016,08,17,03,50,16.40
2016,08,17,03,51,16.30
2016,08,17,03,52,16.30
2016,08,17,03,53,16.30
2016,08,17,03,54,16.30
2016,08,17,03,55,16.30
2016,08,17,03,56,16.30
2016,08,17,03,57,16.30
2016,08,17,03,58,16.30
2016,08,17,03,59,16.30
2016,08,17,04,00,16.30
2016,08,17,04,01,16.40
2016,08,17,04,02,16.40
2016,08,17,04,03,16.50
2016,08,17,04,04,16.60
2016,08,17,04,05,16.70
2016,08,17,04,06,16.90
2016,08,17,04,07,17.00
2016,08,17,04,08,17.10
2016,08,17,04,09,17.20
2016,08,17,04,10,17.30
2016,08,17,04,11,17.30
2016,08,17,04,12,17.40
2016,08,17,04,13,17.40
2016,08,17,04,14,17.50
2016,08,17,04,15,17.50
2016,08,17,04,16,17.50
2016,08,17,04,17,17.50
2016,08,17,04,18,17.50
2016,08,17,04,19,17.50
2016,08,17,04,20,17.50
2016,08,17,04,21,17.40
2016,08,17,04,22,17.20
2016,08,17,04,23,17.00
2016,08,17,04,24,16.90
2016,08,17,04,25,16.70
2016,08,17,04,26,16.60
2016,08,17,04,27,16.50
2016,08,17,04,28,16.40
2016,08,17,04,29,16.40
2016,08,17,04,30,16.30
2016,08,17,04,31,16.30
2016,08,17,04,32,16.20
2016,08,17,04,33,16.20
2016,08,17,04,34,16.10
2016,08,17,04,35,16.10
2016,08,17,04,36,16.00
2016,08,17,04,37,15.90
2016,08,17,04,38,15.90
2016,08,17,04,39,15.80
2016,08,17,04,40,15.80
2016,08,17,04,41,15.80
2016,08,17,04,42,15.70
2016,08,17,04,43,15.60
2016,08,17,04,44,15.60
2016,08,17,04,45,15.50
2016,08,17,04,46,15.40
2016,08,17,04,47,15.40
2016,08,17,04,48,15.30
2016,08,17,04,49,15.30
2016,08,17,04,50,15.20
2016,08,17,04,51,15.20
2016,08,17,04,52,15.20
2016,08,17,04,53,15.10
2016,08,17,04,54,15.10
2016,08,17,04,55,15.00
2016,08,17,04,56,15.00
2016,08,17,04,57,14.90
2016,08,17,04,58,14.90
2016,08,17,04,59,14.90
2016,08,17,05,00,14.80
2016,08,17,05,01,14.80
2016,08,17,05,02,14.80
2016,08,17,05,03,14.80
2016,08,17,05,04,14.80
2016,08,17,05,05,14.70
2016,08,17,05,06,14.70
2016,08,17,05,07,14.70
2016,08,17,05,08,14.70
2016,08,17,05,09,14.60
2016,08,17,05,10,14.60
2016,08,17,05,11,14.60
2016,08,17,05,12,14.50
2016,08,17,05,13,14.50
2016,08,17,05,14,14.40
2016,08,17,05,15,14.40
2016,08,17,05,16,14.40
2016,08,17,05,17,14.40
2016,08,17,05,18,14.30
2016,08,17,05,19,14.30
2016,08,17,05,20,14.30
2016,08,17,05,21,14.30
2016,08,17,05,22,14.30
2016,08,17,05,23,14.30
2016,08,17,05,24,14.30
2016,08,17,05,25,14.20
2016,08,17,05,26,14.20
2016,08,17,05,27,14.20
2016,08,17,05,28,14.20
2016,08,17,05,29,14.20
2016,08,17,05,30,14.20
2016,08,17,05,31,14.20
2016,08,17,05,32,14.20
2016,08,17,05,33,14.20
2016,08,17,05,34,14.20
2016,08,17,05,35,14.20
2016,08,17,05,36,14.20
2016,08,17,05,37,14.20
2016,08,17,05,38,14.20
2016,08,17,05,39,14.10
2016,08,17,05,40,14.10
2016,08,17,05,41,14.10
2016,08,17,05,42,14.10
2016,08,17,05,43,14.00
2016,08,17,05,44,14.00
2016,08,17,05,45,14.00
2016,08,17,05,46,14.00
2016,08,17,05,47,14.00
2016,08,17,05,48,13.90
2016,08,17,05,49,13.90
2016,08,17,05,50,13.90
2016,08,17,05,51,13.90
2016,08,17,05,52,13.90
2016,08,17,05,53,13.90
2016,08,17,05,54,13.80
2016,08,17,05,55,13.80
2016,08,17,05,56,13.80
2016,08,17,05,57,13.80
2016,08,17,05,58,13.80
2016,08,17,05,59,13.80
2016,08,17,06,00,13.80
2016,08,17,06,01,13.80
2016,08,17,06,02,13.80
2016,08,17,06,03,13.80
2016,08,17,06,04,13.80
2016,08,17,06,05,13.80
2016,08,17,06,06,13.80
2016,08,17,06,07,13.70
2016,08,17,06,08,13.70
2016,08,17,06,09,13.70
2016,08,17,06,10,13.70
2016,08,17,06,11,13.70
2016,08,17,06,12,13.70
2016,08,17,06,13,13.70
2016,08,17,06,14,13.70
2016,08,17,06,15,13.70
2016,08,17,06,16,13.70
2016,08,17,06,17,13.70
2016,08,17,06,18,13.70
2016,08,17,06,19,13.70
2016,08,17,06,20,13.70
2016,08,17,06,21,13.70
2016,08,17,06,22,13.80
2016,08,17,06,23,13.90
2016,08,17,06,24,14.00
2016,08,17,06,25,14.20
2016,08,17,06,26,14.30
2016,08,17,06,27,14.50
2016,08,17,06,28,14.60
2016,08,17,06,29,14.80
2016,08,17,06,30,14.90
2016,08,17,06,31,15.00
2016,08,17,06,32,15.00
2016,08,17,06,33,15.10
2016,08,17,06,34,15.20
2016,08,17,06,35,15.40
2016,08,17,06,36,15.70
2016,08,17,06,37,15.90
2016,08,17,06,38,15.90
2016,08,17,06,39,15.90
2016,08,17,06,40,15.70
2016,08,17,06,41,15.60
2016,08,17,06,42,15.40
2016,08,17,06,43,15.30
2016,08,17,06,44,15.20
2016,08,17,06,45,15.10
2016,08,17,06,46,15.10
2016,08,17,06,47,15.00
2016,08,17,06,48,14.90
2016,08,17,06,49,14.80
2016,08,17,06,50,14.70
2016,08,17,06,51,14.60
2016,08,17,06,52,14.50
2016,08,17,06,53,14.40
2016,08,17,06,54,14.30
2016,08,17,06,55,14.30
2016,08,17,06,56,14.20
2016,08,17,06,57,14.20
2016,08,17,06,58,14.20
2016,08,17,06,59,14.10
2016,08,17,07,00,14.10
2016,08,17,07,01,14.00
2016,08,17,07,02,14.00
2016,08,17,07,03,13.90
2016,08,17,07,04,13.90
2016,08,17,07,05,13.90
2016,08,17,07,06,13.90
2016,08,17,07,07,13.90
2016,08,17,07,08,13.80
2016,08,17,07,09,13.80
2016,08,17,07,10,13.80
2016,08,17,07,11,13.80
2016,08,17,07,12,13.80
2016,08,17,07,13,13.80
2016,08,17,07,14,13.80
2016,08,17,07,15,13.80
2016,08,17,07,16,13.80
2016,08,17,07,17,13.80
2016,08,17,07,18,13.90
2016,08,17,07,19,13.90
2016,08,17,07,20,13.90
2016,08,17,07,21,14.00
2016,08,17,07,22,14.00
2016,08,17,07,23,14.10
2016,08,17,07,24,14.10
2016,08,17,07,25,14.10
2016,08,17,07,26,14.10
2016,08,17,07,27,14.10
2016,08,17,07,28,14.20
2016,08,17,07,29,14.30
2016,08,17,07,30,14.30
2016,08,17,07,31,14.40
2016,08,17,07,32,14.40
2016,08,17,07,33,14.50
2016,08,17,07,34,14.60
2016,08,17,07,35,14.60
2016,08,17,07,36,14.60
2016,08,17,07,37,14.70
2016,08,17,07,38,14.70
2016,08,17,07,39,14.70
2016,08,17,07,40,14.80
2016,08,17,07,41,14.80
2016,08,17,07,42,14.90
2016,08,17,07,43,15.00
2016,08,17,07,44,15.10
2016,08,17,07,45,15.20
2016,08,17,07,46,15.30
2016,08,17,07,47,15.30
2016,08,17,07,48,15.40
2016,08,17,07,49,15.50
2016,08,17,07,50,15.50
2016,08,17,07,51,15.60
2016,08,17,07,52,15.70
2016,08,17,07,53,15.70
2016,08,17,07,54,15.80
2016,08,17,07,55,15.90
2016,08,17,07,56,16.00
2016,08,17,07,57,16.10
2016,08,17,07,58,16.20
2016,08,17,07,59,16.30
2016,08,17,08,00,16.30
2016,08,17,08,01,16.40
2016,08,17,08,02,16.40
2016,08,17,08,03,16.40
2016,08,17,08,04,16.40
2016,08,17,08,05,16.40
2016,08,17,08,06,16.50
2016,08,17,08,07,16.50
2016,08,17,08,08,16.50
2016,08,17,08,09,16.50
2016,08,17,08,10,16.60
2016,08,17,08,11,16.70
2016,08,17,08,12,16.90
2016,08,17,08,13,17.10
2016,08,17,08,14,17.30
2016,08,17,08,15,17.50
2016,08,17,08,16,17.70
2016,08,17,08,17,17.80
2016,08,17,08,18,17.90
2016,08,17,08,19,18.00
2016,08,17,08,20,18.10
2016,08,17,08,21,18.10
2016,08,17,08,22,18.10
2016,08,17,08,23,18.10
2016,08,17,08,24,18.00
2016,08,17,08,25,18.00
2016,08,17,08,26,18.10
2016,08,17,08,27,18.20
2016,08,17,08,28,18.30
2016,08,17,08,29,18.40
2016,08,17,08,30,18.50
2016,08,17,08,31,18.60
2016,08,17,08,32,18.70
2016,08,17,08,33,18.70
2016,08,17,08,34,18.60
2016,08,17,08,35,18.60
2016,08,17,08,36,18.60
2016,08,17,08,37,18.60
2016,08,17,08,38,18.60
2016,08,17,08,39,18.50
2016,08,17,08,40,18.60
2016,08,17,08,41,18.60
2016,08,17,08,42,18.60
2016,08,17,08,43,18.60
2016,08,17,08,44,18.60
2016,08,17,08,45,18.60
2016,08,17,08,46,18.60
2016,08,17,08,47,18.60
2016,08,17,08,48,18.60
2016,08,17,08,49,18.60
2016,08,17,08,50,18.60
2016,08,17,08,51,18.70
2016,08,17,08,52,18.70
2016,08,17,08,53,18.70
2016,08,17,08,54,18.70
2016,08,17,08,55,18.80
2016,08,17,08,56,18.80
2016,08,17,08,57,18.80
2016,08,17,08,58,18.90
2016,08,17,08,59,18.90
2016,08,17,09,00,19.00
2016,08,17,09,01,19.10
2016,08,17,09,02,19.10
2016,08,17,09,03,19.20
2016,08,17,09,04,19.30
2016,08,17,09,05,19.30
2016,08,17,09,06,19.40
2016,08,17,09,07,19.40
2016,08,17,09,08,19.40
2016,08,17,09,09,19.50
2016,08,17,09,10,19.60
2016,08,17,09,11,19.60
2016,08,17,09,12,19.70
2016,08,17,09,13,19.70
2016,08,17,09,14,19.80
2016,08,17,09,15,19.80
2016,08,17,09,16,19.90
2016,08,17,09,17,20.00
2016,08,17,09,18,20.10
2016,08,17,09,19,20.20
2016,08,17,09,20,20.20
2016,08,17,09,21,20.30
2016,08,17,09,22,20.30
2016,08,17,09,23,20.30
2016,08,17,09,24,20.30
2016,08,17,09,25,20.40
2016,08,17,09,26,20.40
2016,08,17,09,27,20.50
2016,08,17,09,28,20.60
2016,08,17,09,29,20.60
2016,08,17,09,30,20.60
2016,08,17,09,31,20.70
2016,08,17,09,32,20.70
2016,08,17,09,33,20.60
2016,08,17,09,34,20.60
2016,08,17,09,35,20.60
2016,08,17,09,36,20.60
2016,08,17,09,37,20.70
2016,08,17,09,38,20.70
2016,08,17,09,39,20.80
2016,08,17,09,40,20.80
2016,08,17,09,41,20.80
2016,08,17,09,42,20.90
2016,08,17,09,43,20.90
2016,08,17,09,44,20.90
2016,08,17,09,45,20.90
2016,08,17,09,46,21.00
2016,08,17,09,47,21.00
2016,08,17,09,48,21.00
2016,08,17,09,49,21.00
2016,08,17,09,50,21.00
2016,08,17,09,51,21.00
2016,08,17,09,52,21.00
2016,08,17,09,53,21.00
2016,08,17,09,54,21.00
2016,08,17,09,55,21.00
2016,08,17,09,56,21.10
2016,08,17,09,57,21.10
2016,08,17,09,58,21.10
2016,08,17,09,59,21.10
2016,08,17,10,00,21.10
2016,08,17,10,01,21.10
2016,08,17,10,02,21.20
2016,08,17,10,03,21.20
2016,08,17,10,04,21.20
2016,08,17,10,05,21.30
2016,08,17,10,06,21.30
2016,08,17,10,07,21.40
2016,08,17,10,08,21.40
2016,08,17,10,09,21.40
2016,08,17,10,10,21.40
2016,08,17,10,11,21.40
2016,08,17,10,12,21.40
2016,08,17,10,13,21.40
2016,08,17,10,14,21.50
2016,08,17,10,15,21.60
2016,08,17,10,16,21.60
2016,08,17,10,17,21.70
2016,08,17,10,18,21.70
2016,08,17,10,19,21.70
2016,08,17,10,20,21.80
2016,08,17,10,21,21.80
2016,08,17,10,22,21.80
2016,08,17,10,23,21.90
2016,08,17,10,24,21.90
2016,08,17,10,25,22.00
2016,08,17,10,26,22.00
2016,08,17,10,27,22.00
2016,08,17,10,28,22.00
2016,08,17,10,29,21.90
2016,08,17,10,30,21.90
2016,08,17,10,31,22.00
2016,08,17,10,32,22.00
2016,08,17,10,33,22.10
2016,08,17,10,34,22.20
2016,08,17,10,35,22.20
2016,08,17,10,36,22.20
2016,08,17,10,37,22.20
2016,08,17,10,38,22.20
2016,08,17,10,39,22.20
2016,08,17,10,40,22.20
2016,08,17,10,41,22.20
2016,08,17,10,42,22.20
2016,08,17,10,43,22.20
2016,08,17,10,44,22.20
2016,08,17,10,45,22.20
2016,08,17,10,46,22.20
2016,08,17,10,47,22.30
2016,08,17,10,48,22.30
2016,08,17,10,49,22.40
2016,08,17,10,50,22.50
2016,08,17,10,51,22.50
2016,08,17,10,52,22.50
2016,08,17,10,53,22.60
2016,08,17,10,54,22.60
2016,08,17,10,55,22.50
2016,08,17,10,56,22.50
2016,08,17,10,57,22.40
2016,08,17,10,58,22.40
2016,08,17,10,59,22.40
2016,08,17,11,00,22.40
2016,08,17,11,01,22.40
2016,08,17,11,02,22.40
2016,08,17,11,03,22.40
2016,08,17,11,04,22.50
2016,08,17,11,05,22.50
2016,08,17,11,06,22.50
2016,08,17,11,07,22.60
2016,08,17,11,08,22.60
2016,08,17,11,09,22.60
2016,08,17,11,10,22.70
2016,08,17,11,11,22.80
2016,08,17,11,12,22.80
2016,08,17,11,13,22.70
2016,08,17,11,14,22.70
2016,08,17,11,15,22.70
2016,08,17,11,16,22.70
2016,08,17,11,17,22.80
2016,08,17,11,18,22.80
2016,08,17,11,19,22.80
2016,08,17,11,20,22.80
2016,08,17,11,21,22.90
2016,08,17,11,22,22.90
2016,08,17,11,23,22.90
2016,08,17,11,24,22.90
2016,08,17,11,25,22.90
2016,08,17,11,26,22.90
2016,08,17,11,27,22.90
2016,08,17,11,28,22.90
2016,08,17,11,29,23.00
2016,08,17,11,30,23.00
2016,08,17,11,31,23.10
2016,08,17,11,32,23.10
2016,08,17,11,33,23.20
2016,08,17,11,34,23.20
2016,08,17,11,35,23.30
2016,08,17,11,36,23.40
2016,08,17,11,37,23.50
2016,08,17,11,38,23.60
2016,08,17,11,39,23.70
2016,08,17,11,40,23.70
2016,08,17,11,41,23.70
2016,08,17,11,42,23.70
2016,08,17,11,43,23.70
2016,08,17,11,44,23.70
2016,08,17,11,45,23.70
2016,08,17,11,46,23.70
2016,08,17,11,47,23.80
2016,08,17,11,48,23.80
2016,08,17,11,49,23.80
2016,08,17,11,50,23.80
2016,08,17,11,51,23.80
2016,08,17,11,52,23.90
2016,08,17,11,53,23.90
2016,08,17,11,54,23.90
2016,08,17,11,55,24.00
2016,08,17,11,56,24.00
2016,08,17,11,57,24.00
2016,08,17,11,58,24.10
2016,08,17,11,59,24.10
2016,08,17,12,00,24.10
2016,08,17,12,01,24.10
2016,08,17,12,02,24.10
2016,08,17,12,03,24.20
2016,08,17,12,04,24.20
2016,08,17,12,05,24.20
2016,08,17,12,06,24.30
2016,08,17,12,07,24.30
2016,08,17,12,08,24.40
2016,08,17,12,09,24.50
2016,08,17,12,10,24.50
2016,08,17,12,11,24.60
2016,08,17,12,12,24.60
2016,08,17,12,13,24.70
2016,08,17,12,14,24.80
2016,08,17,12,15,24.80
2016,08,17,12,16,24.90
2016,08,17,12,17,24.90
2016,08,17,12,18,24.90
2016,08,17,12,19,25.00
2016,08,17,12,20,25.10
2016,08,17,12,21,25.10
2016,08,17,12,22,25.20
2016,08,17,12,23,25.20
2016,08,17,12,24,25.20
2016,08,17,12,25,25.30
2016,08,17,12,26,25.30
2016,08,17,12,27,25.40
2016,08,17,12,28,25.40
2016,08,17,12,29,25.40
2016,08,17,12,30,25.40
2016,08,17,12,31,25.40
2016,08,17,12,32,25.40
2016,08,17,12,33,25.40
2016,08,17,12,34,25.40
2016,08,17,12,35,25.40
2016,08,17,12,36,25.50
2016,08,17,12,37,25.50
2016,08,17,12,38,25.50
2016,08,17,12,39,25.60
2016,08,17,12,40,25.60
2016,08,17,12,41,25.60
2016,08,17,12,42,25.60
2016,08,17,12,43,25.60
2016,08,17,12,44,25.70
2016,08,17,12,45,25.60
2016,08,17,12,46,25.60
2016,08,17,12,47,25.60
2016,08,17,12,48,25.60
2016,08,17,12,49,25.70
2016,08,17,12,50,25.80
2016,08,17,12,51,25.90
2016,08,17,12,52,26.00
2016,08,17,12,53,26.10
2016,08,17,12,54,26.10
2016,08,17,12,55,26.20
2016,08,17,12,56,26.20
2016,08,17,12,57,26.10
2016,08,17,12,58,26.10
2016,08,17,12,59,26.10
2016,08,17,13,00,26.00
2016,08,17,13,01,26.00
2016,08,17,13,02,25.90
2016,08,17,13,03,25.90
2016,08,17,13,04,25.90
2016,08,17,13,05,25.90
2016,08,17,13,06,25.90
2016,08,17,13,07,25.90
2016,08,17,13,08,25.90
2016,08,17,13,09,25.90
2016,08,17,13,10,26.00
2016,08,17,13,11,26.00
2016,08,17,13,12,26.10
2016,08,17,13,13,26.10
2016,08,17,13,14,26.10
2016,08,17,13,15,26.20
2016,08,17,13,16,26.20
2016,08,17,13,17,26.20
2016,08,17,13,18,26.20
2016,08,17,13,19,26.10
2016,08,17,13,20,26.10
2016,08,17,13,21,26.10
2016,08,17,13,22,26.10
2016,08,17,13,23,26.30
2016,08,17,13,24,26.40
2016,08,17,13,25,26.50
2016,08,17,13,26,26.60
2016,08,17,13,27,26.60
2016,08,17,13,28,26.60
2016,08,17,13,29,26.60
2016,08,17,13,30,26.60
2016,08,17,13,31,26.60
2016,08,17,13,32,26.60
2016,08,17,13,33,26.60
2016,08,17,13,34,26.70
2016,08,17,13,35,26.70
2016,08,17,13,36,26.70
2016,08,17,13,37,26.70
2016,08,17,13,38,26.70
2016,08,17,13,39,26.70
2016,08,17,13,40,26.70
2016,08,17,13,41,26.80
2016,08,17,13,42,26.80
2016,08,17,13,43,26.80
2016,08,17,13,44,26.80
2016,08,17,13,45,26.80
2016,08,17,13,46,26.80
2016,08,17,13,47,26.80
2016,08,17,13,48,26.80
2016,08,17,13,49,26.80
2016,08,17,13,50,26.80
2016,08,17,13,51,26.80
2016,08,17,13,52,26.80
2016,08,17,13,53,26.90
2016,08,17,13,54,26.90
2016,08,17,13,55,26.90
2016,08,17,13,56,26.90
2016,08,17,13,57,27.00
2016,08,17,13,58,27.10
2016,08,17,13,59,27.10
2016,08,17,14,00,27.10
2016,08,17,14,01,27.20
2016,08,17,14,02,27.20
2016,08,17,14,03,27.20
2016,08,17,14,04,27.20
2016,08,17,14,05,27.30
2016,08,17,14,06,27.30
2016,08,17,14,07,27.30
2016,08,17,14,08,27.40
2016,08,17,14,09,27.40
2016,08,17,14,10,27.40
2016,08,17,14,11,27.40
2016,08,17,14,12,27.30
2016,08,17,14,13,27.30
2016,08,17,14,14,27.30
2016,08,17,14,15,27.30
2016,08,17,14,16,27.30
2016,08,17,14,17,27.30
2016,08,17,14,18,27.30
2016,08,17,14,19,27.40
2016,08,17,14,20,27.40
2016,08,17,14,21,27.40
2016,08,17,14,22,27.50
2016,08,17,14,23,27.50
2016,08,17,14,24,27.40
2016,08,17,14,25,27.40
2016,08,17,14,26,27.40
2016,08,17,14,27,27.40
2016,08,17,14,28,27.40
2016,08,17,14,29,27.50
2016,08,17,14,30,27.60
2016,08,17,14,31,27.60
2016,08,17,14,32,27.60
2016,08,17,14,33,27.70
2016,08,17,14,34,27.70
2016,08,17,14,35,27.70
2016,08,17,14,36,27.70
2016,08,17,14,37,27.70
2016,08,17,14,38,27.70
2016,08,17,14,39,27.90
2016,08,17,14,40,27.90
2016,08,17,14,41,28.00
2016,08,17,14,42,27.90
2016,08,17,14,43,27.90
2016,08,17,14,44,27.90
2016,08,17,14,45,27.90
2016,08,17,14,46,27.90
2016,08,17,14,47,28.00
2016,08,17,14,48,28.10
2016,08,17,14,49,28.20
2016,08,17,14,50,28.20
2016,08,17,14,51,28.20
2016,08,17,14,52,28.20
2016,08,17,14,53,28.20
2016,08,17,14,54,28.30
2016,08,17,14,55,28.30
2016,08,17,14,56,28.40
2016,08,17,14,57,28.30
2016,08,17,14,58,28.40
2016,08,17,14,59,28.40
2016,08,17,15,00,28.40
2016,08,17,15,01,28.40
2016,08,17,15,02,28.30
2016,08,17,15,03,28.30
2016,08,17,15,04,28.30
2016,08,17,15,05,28.30
2016,08,17,15,06,28.20
2016,08,17,15,07,28.20
2016,08,17,15,08,28.20
2016,08,17,15,09,28.20
2016,08,17,15,10,28.10
2016,08,17,15,11,28.20
2016,08,17,15,12,28.20
2016,08,17,15,13,28.20
2016,08,17,15,14,28.20
2016,08,17,15,15,28.20
2016,08,17,15,16,28.20
2016,08,17,15,17,28.20
2016,08,17,15,18,28.20
2016,08,17,15,19,28.30
2016,08,17,15,20,28.30
2016,08,17,15,21,28.30
2016,08,17,15,22,28.30
2016,08,17,15,23,28.40
2016,08,17,15,24,28.50
2016,08,17,15,25,28.50
2016,08,17,15,26,28.60
2016,08,17,15,27,28.60
2016,08,17,15,28,28.70
2016,08,17,15,29,28.70
2016,08,17,15,30,28.70
2016,08,17,15,31,28.70
2016,08,17,15,32,28.80
2016,08,17,15,33,28.80
2016,08,17,15,34,28.90
2016,08,17,15,35,28.90
2016,08,17,15,36,28.90
2016,08,17,15,37,28.90
2016,08,17,15,38,28.80
2016,08,17,15,39,28.80
2016,08,17,15,40,28.80
2016,08,17,15,41,28.80
2016,08,17,15,42,28.70
2016,08,17,15,43,28.70
2016,08,17,15,44,28.80
2016,08,17,15,45,28.80
2016,08,17,15,46,28.80
2016,08,17,15,47,28.80
2016,08,17,15,48,28.80
2016,08,17,15,49,28.90
2016,08,17,15,50,28.90
2016,08,17,15,51,29.00
2016,08,17,15,52,29.00
2016,08,17,15,53,29.00
2016,08,17,15,54,29.10
2016,08,17,15,55,29.10
2016,08,17,15,56,29.10
2016,08,17,15,57,29.10
2016,08,17,15,58,29.10
2016,08,17,15,59,29.10
2016,08,17,16,00,29.10
2016,08,17,16,01,29.10
2016,08,17,16,02,29.10
2016,08,17,16,03,29.10
2016,08,17,16,04,29.10
2016,08,17,16,05,29.10
2016,08,17,16,06,29.10
2016,08,17,16,07,29.20
2016,08,17,16,08,29.20
2016,08,17,16,09,29.20
2016,08,17,16,10,29.20
2016,08,17,16,11,29.20
2016,08,17,16,12,29.20
2016,08,17,16,13,29.10
2016,08,17,16,14,29.10
2016,08,17,16,15,29.20
2016,08,17,16,16,29.20
2016,08,17,16,17,29.20
2016,08,17,16,18,29.30
2016,08,17,16,19,29.40
2016,08,17,16,20,29.40
2016,08,17,16,21,29.50
2016,08,17,16,22,29.50
2016,08,17,16,23,29.60
2016,08,17,16,24,29.60
2016,08,17,16,25,29.60
2016,08,17,16,26,29.60
2016,08,17,16,27,29.60
2016,08,17,16,28,29.60
2016,08,17,16,29,29.60
2016,08,17,16,30,29.60
2016,08,17,16,31,29.60
2016,08,17,16,32,29.60
2016,08,17,16,33,29.60
2016,08,17,16,34,29.60
2016,08,17,16,35,29.60
2016,08,17,16,36,29.50
2016,08,17,16,37,29.40
2016,08,17,16,38,29.40
2016,08,17,16,39,29.50
2016,08,17,16,40,29.50
2016,08,17,16,41,29.60
2016,08,17,16,42,29.70
2016,08,17,16,43,29.80
2016,08,17,16,44,29.80
2016,08,17,16,45,29.80
2016,08,17,16,46,29.70
2016,08,17,16,47,29.70
2016,08,17,16,48,29.70
2016,08,17,16,49,29.70
2016,08,17,16,50,29.80
2016,08,17,16,51,29.80
2016,08,17,16,52,29.70
2016,08,17,16,53,29.70
2016,08,17,16,54,29.60
2016,08,17,16,55,29.60
2016,08,17,16,56,29.60
2016,08,17,16,57,29.60
2016,08,17,16,58,29.50
2016,08,17,16,59,29.50
2016,08,17,17,00,29.50
2016,08,17,17,01,29.60
2016,08,17,17,02,29.60
2016,08,17,17,03,29.60
2016,08,17,17,04,29.60
2016,08,17,17,05,29.60
2016,08,17,17,06,29.60
2016,08,17,17,07,29.60
2016,08,17,17,08,29.50
2016,08,17,17,09,29.50
2016,08,17,17,10,29.50
2016,08,17,17,11,29.50
2016,08,17,17,12,29.50
2016,08,17,17,13,29.60
2016,08,17,17,14,29.50
2016,08,17,17,15,29.50
2016,08,17,17,16,29.50
2016,08,17,17,17,29.50
2016,08,17,17,18,29.50
2016,08,17,17,19,29.60